DateTimeUTC,F1_A11,F1_S11,BsB_S11,BsG_S11,BsR_S11,BbsB_S11,BbsG_S11,BbsR_S11,BaB_A11,BaG_A11,BaR_A11,Tu_S11,T_S11,Uu_S11,U_S11,P_S11,T1_A11
2021-03-27T23:00:00Z,00000200,21000000,,,,,,,0000.08,0000.06,-000.09,16.7,24.2,,00.0,0636.4,31.0
2021-03-27T23:01:00Z,00000200,21000000,,,,,,,0000.04,0000.05,-000.03,16.7,24.2,,00.0,0636.4,31.0
2021-03-27T23:02:00Z,00000200,21000000,,,,,,,-000.20,-000.37,-000.13,16.8,24.3,,00.0,0636.4,31.0
2021-03-27T23:03:00Z,00000200,61000000,,,,,,,0000.69,0000.92,0000.67,16.8,24.3,,00.0,0636.4,31.0
2021-03-27T23:04:00Z,00000200,41000000,0001.62,0001.30,0000.94,0000.09,0000.27,0000.22,0001.10,0000.60,0000.21,17.0,24.1,,00.0,0637.2,30.9
2021-03-27T23:05:00Z,00000200,01000000,0002.22,0001.21,0001.05,0000.53,0000.20,0000.44,0000.70,0000.70,0000.60,17.0,24.1,,00.0,0637.3,30.9
2021-03-27T23:06:00Z,00000200,01000000,0001.98,0001.20,0001.06,0000.15,0000.19,-000.12,0000.64,0000.51,0001.01,17.0,24.0,,00.0,0637.3,30.9
2021-03-27T23:07:00Z,00000200,01000000,0001.79,0001.26,0000.90,0000.19,0000.13,0000.25,0001.25,0001.23,0000.53,16.9,24.0,,00.0,0637.3,30.9
2021-03-27T23:08:00Z,00000200,01000000,0001.52,0001.37,0000.73,-000.32,0000.05,0000.18,0000.79,0000.72,0000.53,16.8,23.9,,00.0,0637.3,30.9
2021-03-27T23:09:00Z,00000200,01000000,0002.26,0001.09,0000.87,-000.02,0000.33,0000.13,0001.06,0001.17,0000.79,16.8,23.9,,00.0,0637.2,30.9
2021-03-27T23:10:00Z,00000200,01000000,0002.05,0001.20,0000.92,0000.48,0000.14,0000.23,0001.08,0000.54,0000.84,16.7,23.8,,00.0,0637.2,30.9
2021-03-27T23:11:00Z,00000200,01000000,0002.13,0001.32,0000.94,-000.04,0000.19,0000.07,0001.06,0001.40,0000.82,16.7,23.8,,00.0,0637.2,30.9
2021-03-27T23:12:00Z,00000200,01000000,0002.19,0001.34,0000.64,0000.27,0000.12,0000.34,0000.98,0000.86,0000.72,16.8,23.8,,00.0,0637.2,30.9
2021-03-27T23:13:00Z,00000200,01000000,0001.83,0001.01,0001.02,-000.04,0000.15,0000.33,0000.89,0000.91,0000.77,16.8,23.8,,00.0,0637.2,30.9
2021-03-27T23:14:00Z,00000200,01000000,0002.78,0001.38,0000.66,0000.40,0000.23,0000.01,0001.25,0000.92,0000.64,16.9,23.8,,00.0,0637.2,30.9
2021-03-27T23:15:00Z,00000200,01000000,0001.85,0001.60,0000.67,0000.31,-000.01,0000.07,0000.85,0000.83,0000.86,16.9,23.9,,00.0,0637.2,30.9
2021-03-27T23:16:00Z,00000200,01000000,0001.86,0001.34,0000.87,-000.04,0000.04,0000.13,0001.01,0000.74,0000.47,17.0,23.9,,00.0,0637.2,31.0
2021-03-27T23:17:00Z,00000200,01000000,0002.19,0001.14,0000.81,0000.34,0000.20,0000.18,0000.74,0001.38,0001.22,17.0,24.0,,00.0,0637.2,31.0
2021-03-27T23:18:00Z,00000200,01000000,0001.70,0001.47,0000.94,0000.71,0000.22,0000.28,0000.99,0001.04,0000.30,17.1,24.0,,00.0,0637.2,31.0
2021-03-27T23:19:00Z,00000200,01000000,0002.04,0001.10,0000.78,0000.03,0000.22,0000.24,0000.62,0000.17,0000.70,17.1,24.0,,00.0,0637.3,31.0
2021-03-27T23:20:00Z,00000200,01000000,0002.30,0001.51,0000.77,0000.68,0000.24,0000.27,0000.74,0000.72,0000.26,17.1,24.0,,00.0,0637.2,30.9
2021-03-27T23:21:00Z,00000200,01000000,0001.95,0001.29,0000.93,0000.57,-000.08,0000.26,0000.99,0000.63,0000.41,17.1,24.0,,00.0,0637.2,30.9
2021-03-27T23:22:00Z,00000200,01000000,0001.63,0001.40,0001.24,0000.14,0000.16,0000.40,0000.81,0000.74,0000.69,17.0,23.9,,00.0,0637.2,30.9
2021-03-27T23:23:00Z,00000200,01000000,0002.59,0001.34,0000.86,-000.14,0000.21,0000.29,0000.82,0000.59,0000.76,16.9,23.9,,00.0,0637.2,30.9
2021-03-27T23:24:00Z,00000200,01000000,0002.46,0001.48,0000.91,0000.22,0000.02,0000.41,0000.95,0000.79,0000.24,16.8,23.8,,00.0,0637.2,30.9
2021-03-27T23:25:00Z,00000200,01000000,0001.55,0001.59,0000.87,0000.09,-000.05,-000.03,0000.60,0000.81,0001.24,16.8,23.8,,00.0,0637.2,30.9
2021-03-27T23:26:00Z,00000200,01000000,0001.90,0001.18,0000.77,-000.07,-000.03,0000.31,0001.15,0001.07,0000.38,16.8,23.8,,00.0,0637.2,30.9
2021-03-27T23:27:00Z,00000200,01000000,0002.28,0001.23,0000.80,0000.17,0000.09,0000.16,0000.98,0001.16,0000.45,16.8,23.8,,00.0,0637.2,30.9
2021-03-27T23:28:00Z,00000200,01000000,0001.93,0001.28,0000.79,0000.16,0000.33,0000.26,0000.76,0000.71,0001.06,16.9,23.8,,00.0,0637.2,30.9
2021-03-27T23:29:00Z,00000200,01000000,0001.87,0001.29,0000.81,-000.11,0000.25,0000.27,0001.55,0001.02,0000.71,16.9,23.8,,00.0,0637.2,31.0
2021-03-27T23:30:00Z,00000200,01000000,0001.86,0001.05,0000.85,0000.34,0000.28,-000.05,0000.47,0000.60,0000.45,17.0,23.8,,00.0,0637.2,31.0
2021-03-27T23:31:00Z,00000200,01000000,0001.86,0001.36,0000.95,0000.27,0000.19,0000.26,0001.24,0001.27,0000.88,17.0,23.9,,00.0,0637.2,31.0
2021-03-27T23:32:00Z,00000200,01000000,0002.26,0001.24,0001.05,0000.27,0000.45,0000.09,0000.56,0000.51,0000.55,17.1,23.9,,00.0,0637.2,30.9
2021-03-27T23:33:00Z,00000200,01000000,0002.14,0000.96,0000.95,0000.40,0000.15,0000.15,0001.27,0001.13,0000.98,17.1,23.9,,00.0,0637.2,31.0
2021-03-27T23:34:00Z,00000200,01000000,0001.62,0001.38,0000.92,0000.50,-000.05,-000.04,0000.76,0000.47,0000.43,17.2,24.0,,00.0,0637.2,31.0
2021-03-27T23:35:00Z,00000200,01000000,0002.59,0001.47,0000.79,-000.02,0000.07,0000.30,0000.65,0000.96,0000.32,17.2,24.0,,00.0,0637.2,31.0
2021-03-27T23:36:00Z,00000200,01000000,0001.34,0001.37,0000.92,0000.19,0000.30,0000.41,0000.81,0000.88,0000.65,17.2,23.9,,00.0,0637.2,31.0
2021-03-27T23:37:00Z,00000200,01000000,0001.66,0001.27,0000.61,0000.26,-000.05,0000.29,0000.90,0000.60,0000.73,17.1,23.9,,00.0,0637.2,30.9
2021-03-27T23:38:00Z,00000200,01000000,0001.81,0001.18,0000.77,0000.05,0000.08,0000.06,0000.81,0000.65,0000.59,17.0,23.9,,00.0,0637.2,30.9
2021-03-27T23:39:00Z,00000200,01000000,0001.33,0001.31,0000.70,0000.16,0000.04,-000.05,0000.69,0001.11,0000.49,16.9,23.9,,00.0,0637.2,30.9
2021-03-27T23:40:00Z,00000200,01000000,0002.30,0001.20,0000.62,-000.22,0000.09,0000.27,0000.88,0000.50,0000.46,16.9,23.8,,00.0,0637.2,30.9
2021-03-27T23:41:00Z,00000200,01000000,0002.29,0000.96,0000.66,0000.13,-000.00,0000.02,0000.96,0000.55,0000.57,16.9,23.8,,00.0,0637.2,30.9
2021-03-27T23:42:00Z,00000200,01000000,0001.89,0001.39,0000.93,0000.07,0000.01,0000.39,0001.09,0001.31,0001.02,16.9,23.8,,00.0,0637.2,30.9
2021-03-27T23:43:00Z,00000200,01000000,0002.16,0001.20,0000.76,0000.29,0000.10,-000.06,0000.48,0000.36,0000.87,16.9,23.8,,00.0,0637.2,30.9
2021-03-27T23:44:00Z,00000200,01000000,0001.86,0001.42,0000.96,0000.30,0000.13,0000.17,0001.52,0001.13,0000.69,17.0,23.8,,00.0,0637.2,30.9
2021-03-27T23:45:00Z,00000200,01000000,0001.95,0001.39,0000.80,0000.14,0000.22,0000.29,0000.65,0000.98,0000.46,17.0,23.8,,00.0,0637.2,30.9
2021-03-27T23:46:00Z,00000200,01000000,0001.96,0001.22,0000.61,0000.31,0000.08,0000.31,0001.12,0000.77,0000.33,17.1,23.9,,00.0,0637.1,30.9
2021-03-27T23:47:00Z,00000200,01000000,0002.43,0001.31,0000.77,0000.55,0000.17,0000.15,0000.63,0000.88,0001.20,17.1,23.9,,00.0,0637.1,31.0
2021-03-27T23:48:00Z,00000200,01000000,0001.41,0001.34,0000.72,-000.07,0000.20,0000.26,0001.12,0000.63,0000.40,17.2,23.9,,00.0,0637.1,31.0
2021-03-27T23:49:00Z,00000200,01000000,0002.25,0001.26,0000.57,0000.51,0000.15,0000.06,0000.60,0001.19,0000.65,17.2,24.0,,00.0,0637.1,31.0
2021-03-27T23:50:00Z,00000200,01000000,0001.42,0001.52,0001.02,-000.09,0000.04,0000.07,0001.07,0000.85,0000.53,17.2,24.0,,00.0,0637.1,31.0
2021-03-27T23:51:00Z,00000200,01000000,0001.60,0001.28,0000.66,0000.12,0000.36,0000.21,0000.68,0000.74,0000.61,17.3,24.0,,00.0,0637.1,31.0
2021-03-27T23:52:00Z,00000200,01000000,0002.06,0001.48,0000.73,0000.38,0000.05,0000.13,0001.11,0000.40,0000.90,17.3,24.0,,00.0,0637.1,31.0
2021-03-27T23:53:00Z,00000200,01000000,0002.20,0001.39,0001.00,0000.58,0000.13,0000.18,0000.77,0001.18,0000.56,17.4,24.1,,00.0,0637.1,31.0
2021-03-27T23:54:00Z,00000200,01000000,0002.20,0001.15,0000.90,0000.12,-000.08,0000.18,0000.85,0000.87,0000.78,17.4,24.1,,00.0,0637.1,31.0
2021-03-27T23:55:00Z,00000200,01000000,0001.71,0001.24,0000.84,0000.25,0000.09,0000.24,0000.87,0000.20,0000.41,17.4,24.1,,00.0,0637.1,31.0
2021-03-27T23:56:00Z,00000200,01000000,0001.76,0001.17,0001.13,0000.14,0000.15,0000.32,0000.87,0001.26,0000.58,17.4,24.1,,00.0,0637.1,31.0
2021-03-27T23:57:00Z,00000200,41000000,,,,,,,0000.81,0000.55,0000.85,17.5,24.1,,00.0,0637.2,31.0
2021-03-27T23:58:00Z,00000200,61000000,,,,,,,0000.07,0000.05,-000.29,17.2,24.3,,00.0,0636.2,31.0
2021-03-27T23:59:00Z,00000200,21000000,,,,,,,-000.42,-000.36,0000.28,17.2,24.4,,00.0,0636.2,31.0
